Date String (YYYY-MM-DD hh:mm:ss) UTC,Instrument flags,absolute air pressure of the measurement (hPa),sample flow rate (lpm),inlet stack bypass flow (lpm),air temperature of the measurement (°C),ambient temperature measured by the external sensor (°C),aerosol sample conditioner tube jacket temperature (°C),OPC LED temperature (°C),internal box temperature (°C),relative humidity of the measurement (%),span deviation,mass concentration of particles derived from Lorenz-Mie calculation of OPC scattering (μg/m³),mass concentration of particles derived from Lorenz-Mie calculation of OPC scattering (μg/m³),mass concentration of particles derived from Lorenz-Mie calculation of OPC scattering (μg/m³)
DateTimeUTC,F1_M11,P_M11,Q1_M11,Q2_M11,T1_M11,T2_M11,T3_M11,T4_M11,T5_M11,U1_M11,ZSPAN_M11,X0_M11,X2_M11,X1_M11
2024-04-10 20:00:00,SystemResetWarning,0830.2,5.00,000.00,026.4,025.7,000.0,034.9,028.3,013.3,0000.0,0019.49,0005.43,0004.08
2024-04-10 20:01:00,SystemResetWarning,0830.2,5.00,000.00,026.4,025.7,000.0,034.9,028.3,013.1,0000.0,0019.19,0005.58,0004.25
2024-04-10 20:02:00,SystemResetWarning,0830.2,5.00,000.00,026.5,025.7,000.0,034.9,028.3,013.0,0003.4,0018.51,0005.70,0004.42
2024-04-10 20:03:00,SystemResetWarning,0830.2,5.00,000.00,026.5,025.7,000.0,034.9,028.3,013.2,0004.6,0018.16,0005.85,0004.53
2024-04-10 20:04:00,SystemResetWarning,0830.3,5.00,000.00,026.5,025.7,000.0,034.9,028.3,013.3,0004.6,0017.73,0005.85,0004.55
2024-04-10 20:05:00,SystemResetWarning,0830.3,5.00,000.00,026.5,025.8,000.0,034.9,028.3,013.2,0004.7,0018.25,0005.81,0004.50
2024-04-10 20:06:00,SystemResetWarning,0830.3,5.00,000.00,026.5,025.8,000.0,034.9,028.3,012.9,0002.2,0017.70,0005.69,0004.35
2024-04-10 20:07:00,SystemResetWarning,0830.3,5.00,000.00,026.5,025.8,000.0,034.9,028.4,013.0,0000.0,0016.28,0005.48,0004.19
2024-04-10 20:08:00,SystemResetWarning,0830.3,5.00,000.00,026.5,025.8,000.0,034.9,028.3,013.3,0000.0,0015.63,0005.26,0004.00
2024-04-10 20:09:00,SystemResetWarning,0830.4,5.00,000.00,026.5,025.8,000.0,034.9,028.3,013.4,0000.0,0015.26,0005.09,0003.85
2024-04-10 20:10:00,SystemResetWarning,0830.4,5.00,000.00,026.5,025.8,000.0,034.9,028.4,013.4,0000.0,0014.62,0004.89,0003.64
2024-04-10 20:11:00,SystemResetWarning,0830.4,4.99,000.00,026.5,025.8,000.0,034.9,028.4,013.5,0000.0,0014.11,0004.65,0003.39
2024-04-10 20:12:00,SystemResetWarning,0830.5,4.99,000.00,026.5,025.9,000.0,035.0,028.4,013.6,0000.0,0014.25,0004.45,0003.17
2024-04-10 20:13:00,SystemResetWarning,0830.5,5.00,000.00,026.6,025.9,000.0,035.0,028.4,013.4,0000.0,0013.64,0004.32,0002.91
2024-04-10 20:14:00,SystemResetWarning,0830.4,5.00,000.00,026.6,025.9,000.0,035.0,028.4,013.3,0000.0,0013.58,0004.19,0002.72
2024-04-10 20:15:00,SystemResetWarning,0830.8,5.01,000.00,026.6,025.9,000.0,035.0,028.4,013.4,0000.0,0013.13,0004.10,0002.62
2024-04-10 20:16:00,SystemResetWarning,0830.6,5.01,000.00,026.6,025.9,000.0,035.0,028.4,013.5,0000.0,0011.95,0004.00,0002.54
2024-04-10 20:17:00,SystemResetWarning,0830.5,5.00,000.00,026.6,025.9,000.0,035.0,028.4,013.2,0000.0,0011.71,0003.90,0002.44
2024-04-10 20:18:00,SystemResetWarning,0830.5,4.99,000.00,026.6,025.9,000.0,035.0,028.4,013.5,0000.0,0010.79,0003.84,0002.34
2024-04-10 20:19:00,SystemResetWarning,0830.5,4.99,000.00,026.6,025.9,000.0,035.0,028.4,013.5,0000.0,0010.91,0003.78,0002.21
2024-04-10 20:20:00,SystemResetWarning,0830.7,5.00,000.00,026.6,025.9,000.0,035.0,028.5,013.3,0000.0,0010.99,0003.71,0002.04
2024-04-10 20:21:00,SystemResetWarning,0830.6,5.00,000.00,026.6,026.0,000.0,035.0,028.5,013.3,0000.0,0010.80,0003.66,0001.98
2024-04-10 20:22:00,SystemResetWarning,0830.6,5.00,000.00,026.6,026.0,000.0,035.0,028.5,013.2,0000.0,0010.70,0003.63,0001.98
2024-04-10 20:23:00,SystemResetWarning,0830.6,4.99,000.00,026.6,026.0,000.0,035.0,028.5,013.3,0000.0,0010.19,0003.59,0001.97
2024-04-10 20:24:00,SystemResetWarning,0830.6,5.01,000.00,026.6,026.0,000.0,035.0,028.5,013.2,0000.0,0010.70,0003.53,0001.96
2024-04-10 20:25:00,SystemResetWarning,0830.6,5.01,000.00,026.7,026.0,000.0,035.1,028.5,013.5,0000.0,0010.76,0003.50,0001.92
2024-04-10 20:26:00,SystemResetWarning,0830.6,5.00,000.00,026.7,026.0,000.0,035.1,028.5,013.9,0000.0,0010.76,0003.48,0001.88
2024-04-10 20:27:00,SystemResetWarning,0830.6,4.98,000.00,026.7,026.0,000.0,035.1,028.5,013.7,0000.0,0010.95,0003.47,0001.86
2024-04-10 20:28:00,SystemResetWarning,0830.6,5.01,000.00,026.7,026.0,000.0,035.1,028.5,013.9,0000.0,0011.01,0003.47,0001.85
2024-04-10 20:29:00,SystemResetWarning,0830.6,5.00,000.00,026.7,026.0,000.0,035.1,028.5,014.1,0000.0,0011.01,0003.45,0001.84
2024-04-10 20:30:00,SystemResetWarning,0830.5,5.01,000.00,026.7,026.0,000.0,035.1,028.5,014.0,0000.0,0011.25,0003.44,0001.83
2024-04-10 20:31:00,SystemResetWarning,0830.5,5.00,000.00,026.7,026.0,000.0,035.1,028.5,013.7,0000.0,0012.67,0003.45,0001.84
2024-04-10 20:32:00,SystemResetWarning,0830.5,4.99,000.00,026.7,026.0,000.0,035.1,028.5,013.8,0000.0,0013.78,0003.47,0001.83
2024-04-10 20:33:00,SystemResetWarning,0830.5,4.99,000.00,026.7,026.0,000.0,035.1,028.5,013.6,0000.0,0014.28,0003.50,0001.84
2024-04-10 20:34:00,SystemResetWarning,0830.7,5.00,000.00,026.7,026.0,000.0,035.1,028.5,013.5,0000.0,0014.39,0003.48,0001.84
2024-04-10 20:35:00,SystemResetWarning,0830.4,5.01,000.00,026.7,026.1,000.0,035.1,028.6,013.4,0000.0,0013.81,0003.48,0001.86
2024-04-10 20:36:00,SystemResetWarning,0830.4,5.01,000.00,026.7,026.1,000.0,035.1,028.6,013.6,0000.0,0013.31,0003.50,0001.86
2024-04-10 20:37:00,SystemResetWarning,0830.5,4.99,000.00,026.8,026.1,000.0,035.2,028.6,013.4,0000.0,0013.41,0003.53,0001.86
2024-04-10 20:38:00,SystemResetWarning,0830.4,5.00,000.00,026.8,026.1,000.0,035.2,028.6,013.3,0000.0,0012.83,0003.50,0001.87
2024-04-10 20:39:00,SystemResetWarning,0830.4,5.00,000.00,026.8,026.1,000.0,035.2,028.6,013.3,0000.0,0012.26,0003.46,0001.89
2024-04-10 20:40:00,SystemResetWarning,0830.4,5.00,000.00,026.8,026.1,000.0,035.2,028.6,013.2,0000.0,0012.23,0003.47,0001.89
2024-04-10 20:41:00,SystemResetWarning,0830.4,4.99,000.00,026.8,026.1,000.0,035.2,028.6,013.1,0000.0,0012.03,0003.49,0001.91
2024-04-10 20:42:00,SystemResetWarning,0830.5,4.99,000.00,026.8,026.2,000.0,035.2,028.6,013.0,0000.0,0010.59,0003.48,0001.91
2024-04-10 20:43:00,SystemResetWarning,0830.8,5.00,000.00,026.8,026.2,000.0,035.2,028.7,013.1,0000.0,0010.36,0003.48,0001.93
2024-04-10 20:44:00,SystemResetWarning,0830.4,5.00,000.00,026.8,026.2,000.0,035.2,028.7,013.2,0000.0,0009.27,0003.43,0001.94
2024-04-10 20:45:00,SystemResetWarning,0830.6,5.01,000.00,026.8,026.2,000.0,035.2,028.7,013.1,0000.0,0009.13,0003.41,0001.95
2024-04-10 20:46:00,SystemResetWarning,0830.5,5.01,000.00,026.8,026.2,000.0,035.2,028.7,013.2,0000.0,0009.07,0003.41,0001.96
2024-04-10 20:47:00,SystemResetWarning,0830.7,4.99,000.00,026.8,026.2,000.0,035.2,028.7,013.2,0000.0,0009.48,0003.42,0001.95
2024-04-10 20:48:00,SystemResetWarning,0830.6,4.99,000.00,026.8,026.2,000.0,035.3,028.7,013.2,0000.0,0009.79,0003.44,0001.96
2024-04-10 20:49:00,SystemResetWarning,0830.6,5.00,000.00,026.9,026.2,000.0,035.3,028.7,013.2,0000.0,0010.21,0003.45,0001.95
2024-04-10 20:50:00,SystemResetWarning,0830.6,4.99,000.00,026.9,026.2,000.0,035.3,028.7,013.2,0000.0,0010.45,0003.50,0001.95
2024-04-10 20:51:00,SystemResetWarning,0830.6,5.00,000.00,026.9,026.2,000.0,035.3,028.7,013.1,0000.0,0010.80,0003.56,0001.96
2024-04-10 20:52:00,SystemResetWarning,0830.6,5.00,000.00,026.9,026.2,000.0,035.3,028.7,013.1,0000.0,0011.41,0003.57,0001.96
2024-04-10 20:53:00,SystemResetWarning,0830.7,5.00,000.00,026.9,026.3,000.0,035.3,028.7,013.0,0000.0,0011.32,0003.57,0001.97
2024-04-10 20:54:00,SystemResetWarning,0830.7,5.01,000.00,026.9,026.3,000.0,035.3,028.7,013.0,0000.0,0010.48,0003.57,0001.97
2024-04-10 20:55:00,SystemResetWarning,0830.7,5.01,000.00,026.9,026.3,000.0,035.3,028.8,013.0,0000.0,0010.39,0003.56,0001.97
2024-04-10 20:56:00,SystemResetWarning,0830.7,5.00,000.00,026.9,026.3,000.0,035.3,028.8,013.1,0000.0,0010.18,0003.56,0001.96
2024-04-10 20:57:00,SystemResetWarning,0830.6,4.99,000.00,026.9,026.3,000.0,035.3,028.8,013.3,0000.0,0010.07,0003.58,0001.94
2024-04-10 20:58:00,SystemResetWarning,0830.6,5.00,000.00,026.9,026.3,000.0,035.3,028.8,013.4,0000.0,0009.85,0003.56,0001.93
2024-04-10 20:59:00,SystemResetWarning,0830.6,5.00,000.00,027.0,026.3,000.0,035.3,028.8,013.5,0000.0,0009.22,0003.51,0001.92
